FW0954 Weather Reports


Display with metric or nautical units.
time (UTC)temp
F
wind
direction
speed
MPH
gust
MPH
rain 1hr
in
rain 24hr
in
rain mn
in
humidity
%
barometer
mb
20260901143503 89 108 0.0 2.0 0.00 0.00 0.00 70 1017.7
20260901143002 88 152 0.0 2.0 0.00 0.00 0.00 70 1017.7
20260901142502 88 168 1.0 4.0 0.00 0.00 0.00 70 1017.8
20260901142003 88 177 1.0 4.0 0.00 0.00 0.00 70 1017.7
20260901141502 88 184 0.0 2.0 0.00 0.00 0.00 70 1017.6
20260901141003 87 168 0.0 1.0 0.00 0.00 0.00 71 1017.6
20260901140503 86 174 0.0 1.0 0.00 0.00 0.00 73 1017.5
20260901140003 86 175 0.0 1.0 0.00 0.00 0.00 73 1017.5
20260901135502 84 181 0.0 1.0 0.00 0.00 0.00 75 1017.7
20260901135002 83 181 0.0 1.0 0.00 0.00 0.00 76 1017.6
20260901134503 83 0 0.0 0.0 0.00 0.00 0.00 77 1017.7
20260901133503 81 0 0.0 0.0 0.00 0.00 0.00 79 1017.7
20260901133003 80 0 0.0 0.0 0.00 0.00 0.00 80 1017.6
20260901132502 80 0 0.0 0.0 0.00 0.00 0.00 80 1017.6
20260901132003 80 0 0.0 0.0 0.00 0.00 0.00 80 1017.5
20260901131502 80 0 0.0 0.0 0.00 0.00 0.00 81 1017.5
20260901131003 79 0 0.0 0.0 0.00 0.00 0.00 81 1017.5
20260901130503 79 0 0.0 0.0 0.00 0.00 0.00 81 1017.4
20260901130003 79 0 0.0 0.0 0.00 0.00 0.00 82 1017.4
20260901125503 78 0 0.0 0.0 0.00 0.00 0.00 82 1017.3
20260901125002 78 0 0.0 0.0 0.00 0.00 0.00 82 1017.3
20260901124503 78 139 0.0 1.0 0.00 0.00 0.00 83 1017.1
20260901124002 78 152 0.0 2.0 0.00 0.00 0.00 83 1017.1
20260901123502 77 155 0.0 2.0 0.00 0.00 0.00 83 1017.1
20260901123003 77 163 0.0 1.0 0.00 0.00 0.00 83 1017.0
20260901122503 77 0 0.0 0.0 0.00 0.00 0.00 82 1016.9
20260901122003 77 0 0.0 0.0 0.00 0.00 0.00 82 1016.9
20260901121503 77 0 0.0 0.0 0.00 0.00 0.00 82 1016.8
20260901121003 77 0 0.0 0.0 0.00 0.00 0.00 82 1016.8
20260901120003 77 0 0.0 0.0 0.00 0.00 0.00 81 1016.5
20260901115502 78 0 0.0 0.0 0.00 0.00 0.00 81 1016.5
20260901115003 78 0 0.0 0.0 0.00 0.00 0.00 80 1016.4
20260901114503 78 0 0.0 0.0 0.00 0.00 0.00 80 1016.4
20260901114003 78 0 0.0 0.0 0.00 0.00 0.00 80 1016.3
20260901113503 78 0 0.0 0.0 0.00 0.00 0.00 79 1016.3
20260901113003 78 0 0.0 0.0 0.00 0.00 0.00 80 1016.3
20260901112503 79 154 0.0 1.0 0.00 0.00 0.00 79 1016.3
20260901112003 79 154 0.0 1.0 0.00 0.00 0.00 79 1016.3
20260901111502 79 173 0.0 1.0 0.00 0.00 0.00 79 1016.3
20260901110503 79 173 0.0 1.0 0.00 0.00 0.00 78 1016.2
20260901110003 79 0 0.0 0.0 0.00 0.00 0.00 78 1016.2
20260901105503 79 0 0.0 0.0 0.00 0.00 0.00 78 1016.2
20260901105003 79 0 0.0 0.0 0.00 0.00 0.00 78 1016.2
20260901104503 79 0 0.0 0.0 0.00 0.00 0.00 77 1016.2
20260901103503 79 0 0.0 0.0 0.00 0.00 0.00 77 1016.2
20260901103002 79 173 0.0 1.0 0.00 0.00 0.00 76 1016.2
20260901102503 79 173 0.0 1.0 0.00 0.00 0.00 76 1016.2
20260901102003 79 0 0.0 0.0 0.00 0.00 0.00 76 1016.2
20260901101003 79 173 0.0 1.0 0.00 0.00 0.00 76 1016.3
20260901100503 79 173 0.0 1.0 0.00 0.00 0.00 75 1016.2
20260901100003 80 173 0.0 1.0 0.00 0.00 0.00 75 1016.3
20260901095503 80 173 0.0 1.0 0.00 0.00 0.00 75 1016.3
20260901095003 80 173 0.0 1.0 0.00 0.00 0.00 75 1016.2
20260901094503 80 0 0.0 0.0 0.00 0.00 0.00 74 1016.4
20260901094003 80 0 0.0 0.0 0.00 0.00 0.00 74 1016.4
20260901093504 80 173 0.0 1.0 0.00 0.00 0.00 74 1016.4
20260901093004 80 173 0.0 1.0 0.00 0.00 0.00 74 1016.4
20260901092003 80 173 0.0 1.0 0.00 0.00 0.00 73 1016.3
20260901091004 81 0 0.0 0.0 0.00 0.00 0.00 72 1016.3
20260901090503 81 159 0.0 2.0 0.00 0.00 0.00 72 1016.2
20260901090004 81 155 0.0 2.0 0.00 0.00 0.00 71 1016.2
20260901085503 81 170 0.0 1.0 0.00 0.00 0.00 71 1016.1
20260901085003 81 184 0.0 1.0 0.00 0.00 0.00 71 1016.1
20260901084503 81 192 0.0 2.0 0.00 0.00 0.00 71 1016.1
20260901084004 81 183 0.0 2.0 0.00 0.00 0.00 70 1016.1
20260901083503 82 139 0.0 1.0 0.00 0.00 0.00 70 1016.0
20260901083003 82 145 0.0 1.0 0.00 0.00 0.00 70 1016.0
20260901082503 82 161 0.0 2.0 0.00 0.00 0.00 69 1016.0
20260901081503 82 0 0.0 0.0 0.00 0.00 0.00 69 1016.0
20260901081003 82 165 0.0 1.0 0.00 0.00 0.00 68 1016.0
20260901080004 83 193 0.0 3.0 0.00 0.00 0.00 67 1015.9
20260901075003 83 181 0.0 2.0 0.00 0.00 0.00 67 1015.9
20260901074503 83 175 0.0 3.0 0.00 0.00 0.00 67 1015.9
20260901074004 83 176 0.0 3.0 0.00 0.00 0.00 67 1015.9
20260901073503 84 178 0.0 2.0 0.00 0.00 0.00 67 1015.9
20260901073004 84 178 0.0 2.0 0.00 0.00 0.00 67 1016.1
20260901072503 84 176 0.0 2.0 0.00 0.00 0.00 67 1016.0
20260901072003 84 167 0.0 2.0 0.00 0.00 0.00 67 1015.9
20260901071504 84 168 0.0 2.0 0.00 0.00 0.00 67 1015.9
20260901071003 84 173 0.0 3.0 0.00 0.00 0.00 66 1015.9
20260901070503 84 167 0.0 3.0 0.00 0.00 0.00 66 1015.9
20260901065503 84 156 0.0 1.0 0.00 0.00 0.00 66 1015.9
20260901065003 84 154 0.0 2.0 0.00 0.00 0.00 66 1015.9
20260901063503 84 159 0.0 2.0 0.00 0.00 0.00 65 1015.8
20260901063003 85 155 0.0 2.0 0.00 0.00 0.00 65 1015.8
20260901062504 85 151 0.0 2.0 0.00 0.00 0.00 65 1015.8
20260901062004 85 158 0.0 2.0 0.00 0.00 0.00 64 1015.7
20260901061503 85 158 0.0 3.0 0.00 0.00 0.00 64 1015.7
20260901061004 85 159 0.0 3.0 0.00 0.00 0.00 65 1015.6
20260901060503 85 152 0.0 1.0 0.00 0.00 0.00 65 1015.6
20260901060003 85 137 0.0 1.0 0.00 0.00 0.00 65 1015.5
20260901055003 86 147 0.0 3.0 0.00 0.00 0.00 64 1015.4
20260901054504 85 155 0.0 3.0 0.00 0.00 0.00 64 1015.4
20260901053504 86 175 0.0 3.0 0.00 0.00 0.00 65 1015.4
20260901053003 86 148 0.0 3.0 0.00 0.00 0.00 66 1015.2
20260901052503 86 148 0.0 3.0 0.00 0.00 0.00 66 1015.3
20260901052001 86 169 0.0 2.0 0.00 0.00 0.00 65 1015.3
20260901051501 86 153 0.0 2.0 0.00 0.00 0.00 64 1015.3
20260901050501 86 136 0.0 2.0 0.00 0.00 0.00 63 1015.0
20260901050002 85 149 0.0 2.0 0.00 0.00 0.00 63 1015.1
20260901045501 85 146 0.0 2.0 0.00 0.00 0.00 63 1015.0
20260901044501 85 97 0.0 1.0 0.00 0.00 0.00 64 1014.9
20260901044001 85 97 0.0 1.0 0.00 0.00 0.00 64 1014.9
20260901043001 85 0 0.0 0.0 0.00 0.00 0.00 64 1014.9
20260901042501 85 0 0.0 0.0 0.00 0.00 0.00 64 1014.9
20260901042001 85 0 0.0 0.0 0.00 0.00 0.00 65 1014.8
20260901041502 85 124 0.0 2.0 0.00 0.00 0.00 65 1014.9
20260901041002 85 125 0.0 2.0 0.00 0.00 0.00 65 1015.0
20260901040502 85 142 0.0 1.0 0.00 0.00 0.00 66 1015.0
20260901040001 85 0 0.0 0.0 0.00 0.00 0.00 60 1014.8
20260901035501 86 0 0.0 0.0 0.00 0.00 0.00 58 1014.7
20260901035001 86 0 0.0 0.0 0.00 0.00 0.00 58 1014.8
20260901034501 86 0 0.0 0.0 0.00 0.00 0.00 57 1014.8
20260901033501 86 0 0.0 0.0 0.00 0.00 0.00 56 1014.7
20260901033001 87 0 0.0 0.0 0.00 0.00 0.00 56 1014.8
20260901032001 87 0 0.0 0.0 0.00 0.00 0.00 55 1014.8
20260901031501 87 0 0.0 0.0 0.00 0.00 0.00 55 1014.7
20260901031001 87 0 0.0 0.0 0.00 0.00 0.00 55 1014.7
20260901030501 88 0 0.0 0.0 0.00 0.00 0.00 55 1014.6
20260901030001 88 0 0.0 0.0 0.00 0.00 0.00 54 1014.6
20260901025002 88 0 0.0 0.0 0.00 0.00 0.00 54 1014.4
20260901024001 89 0 0.0 0.0 0.00 0.00 0.00 53 1014.2
20260901023002 89 166 0.0 1.0 0.00 0.00 0.00 53 1014.1
20260901022501 89 166 0.0 1.0 0.00 0.00 0.00 52 1014.0
20260901022002 89 0 0.0 0.0 0.00 0.00 0.00 52 1013.9
20260901021502 89 0 0.0 0.0 0.00 0.00 0.00 51 1014.0
20260901021002 89 0 0.0 0.0 0.00 0.00 0.00 51 1013.9
20260901020002 90 0 0.0 0.0 0.00 0.00 0.00 50 1013.8
20260901015002 90 0 0.0 0.0 0.00 0.00 0.00 50 1013.7
20260901014501 91 0 0.0 0.0 0.00 0.00 0.00 49 1013.8
20260901014002 91 0 0.0 0.0 0.00 0.00 0.00 49 1013.8
20260901013501 91 0 0.0 0.0 0.00 0.00 0.00 48 1013.7
20260901013002 92 0 0.0 0.0 0.00 0.00 0.00 48 1013.7
20260901012002 93 0 0.0 0.0 0.00 0.00 0.00 47 1013.8
20260901011501 93 161 0.0 1.0 0.00 0.00 0.00 46 1013.7
20260901011002 93 161 0.0 1.0 0.00 0.00 0.00 46 1013.6
20260901010501 94 166 0.0 2.0 0.00 0.00 0.00 46 1013.6
20260901010002 94 167 0.0 2.0 0.00 0.00 0.00 45 1013.6
20260901005501 94 147 0.0 1.0 0.00 0.00 0.00 45 1013.6
20260901005002 95 154 0.0 1.0 0.00 0.00 0.00 44 1013.6
20260901004502 95 148 0.0 3.0 0.00 0.00 0.00 44 1013.6
20260901004001 96 144 0.0 3.0 0.00 0.00 0.00 44 1013.6
20260901003501 96 172 0.0 3.0 0.00 0.00 0.00 44 1013.5
20260901003002 97 170 1.0 4.0 0.00 0.00 0.00 43 1013.5
20260901002501 98 156 1.0 4.0 0.00 0.00 0.00 43 1013.5
20260901002002 98 146 0.0 3.0 0.00 0.00 0.00 43 1013.6
20260901001502 99 159 0.0 3.0 0.00 0.00 0.00 44 1013.5
20260901001001 100 147 0.0 2.0 0.00 0.00 0.00 43 1013.5
20260901000502 100 145 1.0 5.0 0.00 0.00 0.00 43 1013.6
20260901000002 100 156 1.0 6.0 0.00 0.00 0.00 41 1013.6
20260831235501 101 162 1.0 6.0 0.00 0.00 0.00 40 1013.6
20260831235002 101 161 1.0 4.0 0.00 0.00 0.00 38 1013.5
20260831234501 101 172 1.0 5.0 0.00 0.00 0.00 38 1013.6
20260831234002 101 176 2.0 5.0 0.00 0.00 0.00 39 1013.6
20260831233002 101 157 1.0 4.0 0.00 0.00 0.00 38 1013.5
20260831232502 102 176 1.0 3.0 0.00 0.00 0.00 38 1013.5
20260831231502 102 161 0.0 4.0 0.00 0.00 0.00 37 1013.5
20260831231002 102 167 1.0 4.0 0.00 0.00 0.00 37 1013.5
20260831230502 102 135 1.0 4.0 0.00 0.00 0.00 37 1013.5
20260831230001 102 143 1.0 6.0 0.00 0.00 0.00 38 1013.6
20260831225501 102 152 2.0 6.0 0.00 0.00 0.00 38 1013.6
20260831225002 103 151 2.0 5.0 0.00 0.00 0.00 38 1013.6
20260831224002 103 184 2.0 6.0 0.00 0.00 0.00 36 1013.7
20260831223501 103 202 2.0 6.0 0.00 0.00 0.00 35 1013.7
20260831223002 103 208 2.0 8.0 0.00 0.00 0.00 35 1013.7
20260831222502 103 198 2.0 8.0 0.00 0.00 0.00 34 1013.9
20260831222001 104 187 1.0 5.0 0.00 0.00 0.00 34 1013.9
20260831221502 104 184 2.0 8.0 0.00 0.00 0.00 36 1013.8
20260831221002 103 181 2.0 8.0 0.00 0.00 0.00 35 1013.9
20260831220502 103 179 2.0 5.0 0.00 0.00 0.00 35 1013.8
20260831215502 103 190 1.0 6.0 0.00 0.00 0.00 36 1013.9
20260831215002 103 191 3.0 10.0 0.00 0.00 0.00 36 1014.0
20260831214501 102 189 3.0 10.0 0.00 0.00 0.00 36 1014.1
20260831214002 102 195 2.0 10.0 0.00 0.00 0.00 36 1014.1
20260831212502 103 177 1.0 7.0 0.00 0.00 0.00 36 1014.2
20260831212002 103 188 2.0 8.0 0.00 0.00 0.00 36 1014.3
20260831211001 103 173 3.0 7.0 0.00 0.00 0.00 36 1014.3
20260831210502 103 178 3.0 7.0 0.00 0.00 0.00 36 1014.4
20260831210002 103 188 3.0 6.0 0.00 0.00 0.00 36 1014.4
20260831205002 103 166 1.0 7.0 0.00 0.00 0.00 37 1014.6
20260831204502 103 191 2.0 9.0 0.00 0.00 0.00 38 1014.6
20260831204002 103 171 2.0 9.0 0.00 0.00 0.00 38 1014.8
20260831203501 103 94 1.0 5.0 0.00 0.00 0.00 39 1014.8
20260831203002 102 77 1.0 6.0 0.00 0.00 0.00 40 1014.8
20260831202503 102 95 2.0 7.0 0.00 0.00 0.00 42 1015.0
20260831202002 102 104 2.0 7.0 0.00 0.00 0.00 41 1015.1
20260831201502 102 92 1.0 6.0 0.00 0.00 0.00 40 1015.1
20260831201002 103 98 1.0 4.0 0.00 0.00 0.00 40 1015.2
20260831200502 103 158 1.0 8.0 0.00 0.00 0.00 37 1015.2
20260831200002 103 155 2.0 8.0 0.00 0.00 0.00 39 1015.4
20260831195502 102 145 2.0 6.0 0.00 0.00 0.00 40 1015.4
20260831195002 102 165 2.0 7.0 0.00 0.00 0.00 40 1015.5
20260831194502 101 167 1.0 7.0 0.00 0.00 0.00 40 1015.5
20260831194002 102 156 1.0 4.0 0.00 0.00 0.00 40 1015.6
20260831193502 101 139 2.0 5.0 0.00 0.00 0.00 41 1015.7
20260831193003 100 123 1.0 5.0 0.00 0.00 0.00 43 1015.8
20260831192002 98 102 0.0 3.0 0.00 0.00 0.00 44 1015.9
20260831191503 98 98 0.0 3.0 0.00 0.00 0.00 45 1015.9
20260831191002 99 126 0.0 5.0 0.00 0.00 0.00 45 1016.0
20260831190503 100 169 1.0 7.0 0.00 0.00 0.00 44 1016.1
20260831190003 101 176 2.0 7.0 0.00 0.00 0.00 42 1016.0
20260831185502 102 182 3.0 9.0 0.00 0.00 0.00 42 1016.1
20260831185002 102 173 3.0 9.0 0.00 0.00 0.00 43 1016.2
20260831183503 102 138 1.0 5.0 0.00 0.00 0.00 42 1016.2
20260831182502 101 135 1.0 4.0 0.00 0.00 0.00 46 1016.4
20260831181002 100 161 1.0 7.0 0.00 0.00 0.00 44 1016.6
20260831180502 100 168 1.0 5.0 0.00 0.00 0.00 46 1016.7
20260831180002 100 170 2.0 7.0 0.00 0.00 0.00 45 1016.7
20260831175502 100 168 2.0 7.0 0.00 0.00 0.00 45 1016.8
20260831175002 100 185 2.0 9.0 0.00 0.00 0.00 45 1016.8
20260831174503 100 204 0.0 9.0 0.00 0.00 0.00 46 1016.9
20260831174002 99 182 1.0 5.0 0.00 0.00 0.00 47 1017.0
20260831173002 98 181 2.0 7.0 0.00 0.00 0.00 48 1017.1
20260831172502 98 198 2.0 7.0 0.00 0.00 0.00 48 1017.1
20260831172002 98 193 2.0 8.0 0.00 0.00 0.00 49 1017.2
20260831171503 97 182 2.0 8.0 0.00 0.00 0.00 49 1017.3
20260831171002 97 188 2.0 7.0 0.00 0.00 0.00 49 1017.4
20260831170503 97 195 2.0 7.0 0.00 0.00 0.00 49 1017.4
20260831170002 97 183 2.0 7.0 0.00 0.00 0.00 49 1017.3
20260831165503 96 188 3.0 7.0 0.00 0.00 0.00 50 1017.5
20260831165002 96 183 3.0 7.0 0.00 0.00 0.00 50 1017.5
20260831164502 96 175 3.0 9.0 0.00 0.00 0.00 50 1017.5
20260831163502 96 196 2.0 5.0 0.00 0.00 0.00 51 1017.5
20260831163003 95 168 2.0 5.0 0.00 0.00 0.00 52 1017.5
20260831162502 95 176 3.0 8.0 0.00 0.00 0.00 52 1017.5
20260831162002 94 182 3.0 8.0 0.00 0.00 0.00 52 1017.7
20260831161502 94 209 2.0 6.0 0.00 0.00 0.00 53 1017.6
20260831161002 94 230 2.0 5.0 0.00 0.00 0.00 53 1017.6
20260831160503 94 211 2.0 4.0 0.00 0.00 0.00 53 1017.7
20260831160002 93 229 1.0 4.0 0.00 0.00 0.00 54 1017.7
20260831155502 93 191 2.0 7.0 0.00 0.00 0.00 55 1017.6
20260831155003 92 187 2.0 7.0 0.00 0.00 0.00 56 1017.6
20260831154002 92 195 2.0 7.0 0.00 0.00 0.00 57 1017.8
20260831153503 91 173 2.0 7.0 0.00 0.00 0.00 58 1017.7
20260831153003 91 181 2.0 7.0 0.00 0.00 0.00 58 1017.7
20260831152503 90 195 2.0 7.0 0.00 0.00 0.00 60 1017.6
20260831152002 90 220 2.0 7.0 0.00 0.00 0.00 62 1017.7
20260831150002 88 269 1.0 6.0 0.00 0.00 0.00 64 1017.5
20260831145503 88 271 2.0 6.0 0.00 0.00 0.00 65 1017.5
20260831145002 88 261 1.0 5.0 0.00 0.00 0.00 65 1017.4
20260831144503 88 238 1.0 5.0 0.00 0.00 0.00 67 1017.5
20260831144003 87 248 1.0 5.0 0.00 0.00 0.00 69 1017.5